Flag for Lithuania Weather past 2 weeks in Kaunas, Lithuania

Now
73 °F

Passing clouds.


Feels Like: 77 °F
Forecast: 54 / 82 °F
Wind: 6 mph from Southwest

Location: Kaunas

Current Time: Aug 3, 2015 at 10:45:37 AM

Latest Report: Aug 3, 2015 at 10:20 AM


Visibility: N/A

Pressure: 30.12 "Hg

Humidity: 50%

Dew point: 54 °F

Location of KaunasLocation

Historic Weather in Kaunas — Graph

°F

Kaunas temperature yesterday

Maximum temperature yesterday: 73 °F (at 3:50 PM)
Minimum temperature yesterday: 45 °F (at 3:20 AM)
Average temperature yesterday: 61 °F

Past Weeks' High & Low Weather Summary

 TemperatureHumidityPressure
High81 °F (Jul 25, 4:20 PM)100% (Aug 2, 3:20 AM)30.24 "Hg (Aug 2, 3:20 AM)
Low45 °F (Aug 2, 3:20 AM)33% (Jul 19, 12:50 PM)29.50 "Hg (Jul 20, 3:50 AM)
Average62 °F70%29.84 "Hg
* Reported Jul 19 9:20 AM — Aug 3 9:50 AM, Kaunas, Weather by CustomWeather, © 2015

Note: Actual official high and low records may vary slightly from our data, if they occured in-between our weather recording intervals... More about our weather records

Advertising

Kaunas weather history for previous 24 hours

 ConditionsComfort  
Time TempWeatherWind HumidityBarometerVisibility
9:50 AM
Mon, Aug 3
72 °FPassing clouds.7 mph53%30.12 "HgN/A
9:20 AM66 °FPassing clouds.3 mph68%30.12 "HgN/A
8:50 AM64 °FSunny.5 mph68%30.12 "Hg10 mi
8:20 AM63 °FPassing clouds.5 mph73%30.12 "HgN/A
7:50 AM59 °FSunny.No wind82%30.12 "Hg10 mi
7:20 AM57 °FSunny.No wind82%30.12 "Hg10 mi
6:50 AM52 °FSunny.2 mph88%30.12 "Hg10 mi
6:20 AM52 °FClear.2 mph82%30.12 "Hg10 mi
5:50 AM50 °FClear.5 mph88%30.12 "Hg10 mi
5:20 AM48 °FClear.3 mph94%30.15 "Hg10 mi
4:50 AM50 °FClear.3 mph88%30.15 "Hg10 mi
4:20 AM52 °FClear.2 mph82%30.15 "Hg10 mi
3:50 AM52 °FClear.2 mph88%30.15 "Hg10 mi
3:20 AM52 °FCool.2 mph88%30.15 "HgN/A
2:50 AM52 °FCool.2 mph88%30.15 "HgN/A
2:20 AM52 °FCool.No wind88%30.15 "HgN/A
1:50 AM52 °FCool.No wind88%30.15 "HgN/A
1:20 AM55 °FCool.2 mph77%30.18 "HgN/A
12:20 AM54 °FCool.No wind88%30.18 "HgN/A
11:50 PM
Sun, Aug 2
55 °FClear.1 mph82%30.18 "Hg10 mi
11:20 PM57 °FClear.1 mph77%30.18 "Hg10 mi
10:50 PM55 °FClear.3 mph82%30.18 "Hg10 mi
10:20 PM59 °FSunny.2 mph72%30.18 "Hg10 mi
9:50 PM59 °FSunny.2 mph77%30.18 "Hg10 mi
9:20 PM64 °FSunny.3 mph56%30.18 "Hg10 mi
8:50 PM66 °FSunny.2 mph56%30.18 "Hg10 mi
8:20 PM70 °FSunny.3 mph46%30.18 "Hg10 mi
7:50 PM72 °FSunny.3 mph38%30.18 "Hg10 mi
7:20 PM73 °FPassing clouds.5 mph33%30.18 "HgN/A
6:50 PM73 °FPassing clouds.6 mph36%30.18 "HgN/A
6:20 PM73 °FPassing clouds.6 mph36%30.18 "HgN/A
5:50 PM73 °FPassing clouds.5 mph36%30.18 "HgN/A
5:20 PM73 °FPassing clouds.5 mph38%30.21 "HgN/A
4:50 PM73 °FSunny.6 mph38%30.21 "Hg10 mi
4:20 PM73 °FSunny.8 mph36%30.21 "Hg10 mi
3:50 PM73 °FPassing clouds.6 mph41%30.21 "HgN/A
3:20 PM72 °FPassing clouds.5 mph41%30.21 "HgN/A
2:50 PM72 °FPassing clouds.7 mph38%30.21 "HgN/A
2:20 PM72 °FPassing clouds.6 mph41%30.21 "HgN/A
1:50 PM72 °FPassing clouds.8 mph41%30.24 "HgN/A
1:20 PM70 °FSunny.6 mph43%30.24 "Hg10 mi
12:50 PM68 °FPassing clouds.8 mph46%30.24 "HgN/A
12:20 PM68 °FPassing clouds.7 mph49%30.24 "HgN/A
11:50 AM68 °FPassing clouds.8 mph49%30.24 "HgN/A
11:20 AM66 °FPassing clouds.9 mph52%30.24 "HgN/A
10:50 AM64 °FPassing clouds.9 mph56%30.24 "HgN/A
10:20 AM63 °FPassing clouds.8 mph59%30.24 "HgN/A
Weather by CustomWeather, © 2015

See weather overviewHow to use our weather pages